When you browse on this site, cookies collect data to enhance your experience and personalize the content and advertising you see.
Visit our Privacy Policy to learn more. By continuing to use the site, you agree to this use of cookies and data.
  • en France
  • Liste des pays
  • À 7 jours
  • Température de l'eau
  • Carte météo
  • Widgets météo
  • user-avatar
    Se connecter

    Météo par heure à Bukit Fraser

    Ce jour, 26 Mai, Mardi

    Heure Température Précipitation Vent Pression Humidité
    00:00 +19°C° 0.4 mm 0 m/s 681 mmHg 93%
    01:00 +19°C° 0.4 mm 0 m/s 681 mmHg 93%
    02:00 +19°C° 0.1 mm 0 m/s 681 mmHg 94%
    03:00 +19°C° 0.1 mm 0 m/s 680 mmHg 94%
    04:00 +19°C° 0.1 mm 0 m/s 680 mmHg 94%
    05:00 +19°C° 0 mm 0 m/s 680 mmHg 94%
    06:00 +20°C° 0 mm 0 m/s 681 mmHg 93%
    07:00 +20°C° 0 mm 0 m/s 681 mmHg 92%
    08:00 +22°C° 0.9 mm 0 m/s 682 mmHg 87%
    09:00 +24°C° 0.9 mm 0 m/s 682 mmHg 82%
    10:00 +25°C° 0.9 mm 0 m/s 683 mmHg 77%
    11:00 +26°C° 2.4 mm 0 m/s 683 mmHg 76%
    12:00 +28°C° 2.4 mm 1 m/s 682 mmHg 75%
    13:00 +28°C° 2.4 mm 1 m/s 682 mmHg 74%
    14:00 +28°C° 2.1 mm 1 m/s 681 mmHg 76%
    15:00 +27°C° 2.1 mm 1 m/s 681 mmHg 78%
    16:00 +27°C° 2.1 mm 1 m/s 680 mmHg 81%
    17:00 +25°C° 1.2 mm 1 m/s 680 mmHg 84%
    18:00 +24°C° 1.2 mm 1 m/s 680 mmHg 87%
    19:00 +23°C° 1.2 mm 1 m/s 681 mmHg 90%
    20:00 +20°C° 0.2 mm 0 m/s 681 mmHg 90%
    21:00 +20°C° 0.2 mm 0 m/s 681 mmHg 90%
    22:00 +20°C° 0.2 mm 0 m/s 682 mmHg 90%
    23:00 +20°C° 0 mm 0 m/s 682 mmHg 89%

    Demain, 27 Mai, Mercredi

    Heure Température Précipitation Vent Pression Humidité
    00:00 +20°C° 0 mm 0 m/s 681 mmHg 89%
    01:00 +20°C° 0 mm 0 m/s 681 mmHg 88%
    02:00 +20°C° 0.1 mm 0 m/s 681 mmHg 89%
    03:00 +20°C° 0.1 mm 0 m/s 681 mmHg 89%
    04:00 +19°C° 0.1 mm 0 m/s 680 mmHg 90%
    05:00 +20°C° 0.5 mm 0 m/s 681 mmHg 91%
    06:00 +20°C° 0.5 mm 0 m/s 681 mmHg 91%
    07:00 +20°C° 0.5 mm 0 m/s 682 mmHg 92%
    08:00 +21°C° 0.2 mm 0 m/s 682 mmHg 86%
    09:00 +23°C° 0.2 mm 0 m/s 683 mmHg 80%
    10:00 +25°C° 0.2 mm 0 m/s 683 mmHg 74%
    11:00 +25°C° 0.7 mm 0 m/s 683 mmHg 71%
    12:00 +26°C° 0.7 mm 0 m/s 682 mmHg 68%
    13:00 +29°C° 0.7 mm 1 m/s 682 mmHg 65%
    14:00 +28°C° 0.7 mm 1 m/s 681 mmHg 68%
    15:00 +28°C° 0.7 mm 1 m/s 681 mmHg 70%
    16:00 +27°C° 0.7 mm 1 m/s 680 mmHg 73%
    17:00 +26°C° 0.1 mm 1 m/s 680 mmHg 79%
    18:00 +24°C° 0.1 mm 1 m/s 680 mmHg 85%
    19:00 +21°C° 0.1 mm 0 m/s 680 mmHg 92%
    20:00 +21°C° 0 mm 0 m/s 681 mmHg 92%
    21:00 +21°C° 0 mm 0 m/s 681 mmHg 92%
    22:00 +20°C° 0 mm 0 m/s 681 mmHg 92%
    23:00 +20°C° 0.1 mm 0 m/s 681 mmHg 92%

    Après-demain, 28 Mai, Jeudi

    Heure Température Précipitation Vent Pression Humidité
    00:00 +20°C° 0.1 mm 0 m/s 681 mmHg 92%
    01:00 +20°C° 0.1 mm 0 m/s 681 mmHg 92%
    02:00 +20°C° 0 mm 0 m/s 681 mmHg 92%
    03:00 +20°C° 0 mm 0 m/s 680 mmHg 92%
    04:00 +20°C° 0 mm 0 m/s 680 mmHg 92%
    05:00 +20°C° 0 mm 0 m/s 680 mmHg 91%
    06:00 +20°C° 0 mm 0 m/s 681 mmHg 91%
    07:00 +21°C° 0 mm 0 m/s 681 mmHg 90%
    08:00 +23°C° 0 mm 0 m/s 682 mmHg 80%
    09:00 +27°C° 0 mm 1 m/s 683 mmHg 70%
    10:00 +29°C° 0 mm 1 m/s 683 mmHg 60%
    11:00 +29°C° 0.1 mm 1 m/s 683 mmHg 61%
    12:00 +29°C° 0.1 mm 1 m/s 682 mmHg 62%
    13:00 +29°C° 0.1 mm 1 m/s 682 mmHg 62%
    14:00 +28°C° 0.3 mm 1 m/s 681 mmHg 67%
    15:00 +28°C° 0.3 mm 1 m/s 680 mmHg 71%
    16:00 +28°C° 0.3 mm 1 m/s 680 mmHg 75%
    17:00 +26°C° 0.9 mm 1 m/s 680 mmHg 82%
    18:00 +22°C° 0.9 mm 0 m/s 680 mmHg 88%
    19:00 +21°C° 0.9 mm 0 m/s 680 mmHg 95%
    20:00 +21°C° 1.1 mm 0 m/s 680 mmHg 95%
    21:00 +21°C° 1.1 mm 0 m/s 681 mmHg 96%
    22:00 +20°C° 1.1 mm 0 m/s 681 mmHg 96%
    23:00 +20°C° 3.2 mm 0 m/s 681 mmHg 96%

    29 Mai, Vendredi

    Heure Température Précipitation Vent Pression Humidité
    00:00 +20°C° 3.2 mm 0 m/s 680 mmHg 97%
    01:00 +20°C° 3.2 mm 0 m/s 680 mmHg 97%
    02:00 +20°C° 1.7 mm 0 m/s 680 mmHg 96%
    03:00 +20°C° 1.7 mm 0 m/s 680 mmHg 96%
    04:00 +19°C° 1.7 mm 0 m/s 679 mmHg 96%
    05:00 +20°C° 0.6 mm 0 m/s 680 mmHg 95%
    06:00 +20°C° 0.6 mm 0 m/s 680 mmHg 95%
    07:00 +20°C° 0.6 mm 0 m/s 681 mmHg 95%
    08:00 +20°C° 0.7 mm 0 m/s 681 mmHg 94%
    09:00 +21°C° 0.7 mm 0 m/s 682 mmHg 94%
    10:00 +23°C° 0.7 mm 1 m/s 682 mmHg 93%
    11:00 +21°C° 0.4 mm 0 m/s 682 mmHg 92%
    12:00 +21°C° 0.4 mm 0 m/s 682 mmHg 91%
    13:00 +21°C° 0.4 mm 0 m/s 682 mmHg 90%
    14:00 +23°C° 0.9 mm 1 m/s 681 mmHg 92%
    15:00 +22°C° 0.9 mm 1 m/s 681 mmHg 94%
    16:00 +21°C° 0.9 mm 1 m/s 681 mmHg 96%
    17:00 +21°C° 0.6 mm 1 m/s 681 mmHg 97%
    18:00 +20°C° 0.6 mm 1 m/s 681 mmHg 97%
    19:00 +19°C° 0.6 mm 1 m/s 681 mmHg 97%
    20:00 +20°C° 0 mm 1 m/s 682 mmHg 96%
    21:00 +20°C° 0 mm 1 m/s 682 mmHg 94%
    22:00 +20°C° 0 mm 1 m/s 682 mmHg 93%
    23:00 +20°C° 0 mm 1 m/s 682 mmHg 92%

    30 Mai, Samedi

    Heure Température Précipitation Vent Pression Humidité
    00:00 +20°C° 0 mm 1 m/s 681 mmHg 90%
    01:00 +18°C° 0 mm 0 m/s 681 mmHg 89%
    02:00 +18°C° 0 mm 0 m/s 680 mmHg 87%
    03:00 +18°C° 0 mm 0 m/s 680 mmHg 85%
    04:00 +18°C° 0 mm 0 m/s 680 mmHg 84%
    05:00 +18°C° 0 mm 0 m/s 680 mmHg 83%
    06:00 +18°C° 0 mm 0 m/s 680 mmHg 82%
    07:00 +19°C° 0 mm 0 m/s 681 mmHg 81%
    08:00 +21°C° 0 mm 0 m/s 681 mmHg 73%
    09:00 +23°C° 0 mm 0 m/s 682 mmHg 66%
    10:00 +25°C° 0 mm 0 m/s 683 mmHg 58%
    11:00 +26°C° 0 mm 0 m/s 683 mmHg 55%
    12:00 +29°C° 0 mm 1 m/s 683 mmHg 52%
    13:00 +30°C° 0 mm 1 m/s 683 mmHg 49%
    14:00 +30°C° 0.2 mm 1 m/s 682 mmHg 53%
    15:00 +29°C° 0.2 mm 1 m/s 681 mmHg 58%
    16:00 +28°C° 0.2 mm 1 m/s 681 mmHg 62%
    17:00 +26°C° 0.1 mm 1 m/s 681 mmHg 71%
    18:00 +22°C° 0.1 mm 0 m/s 681 mmHg 80%
    19:00 +20°C° 0.1 mm 0 m/s 681 mmHg 89%
    20:00 +20°C° 0.1 mm 0 m/s 681 mmHg 89%
    21:00 +20°C° 0.1 mm 0 m/s 682 mmHg 90%
    22:00 +20°C° 0.1 mm 0 m/s 682 mmHg 90%
    23:00 +19°C° 0 mm 0 m/s 682 mmHg 90%

    31 Mai, Dimanche

    Heure Température Précipitation Vent Pression Humidité
    00:00 +19°C° 0 mm 0 m/s 682 mmHg 90%
    01:00 +19°C° 0 mm 0 m/s 681 mmHg 90%
    02:00 +19°C° 0.4 mm 0 m/s 681 mmHg 91%
    03:00 +19°C° 0.4 mm 0 m/s 681 mmHg 92%
    04:00 +18°C° 0.4 mm 0 m/s 681 mmHg 92%
    05:00 +19°C° 0.2 mm 0 m/s 681 mmHg 91%
    06:00 +19°C° 0.2 mm 0 m/s 681 mmHg 91%
    07:00 +20°C° 0.2 mm 0 m/s 682 mmHg 90%
    08:00 +22°C° 0 mm 0 m/s 683 mmHg 80%
    09:00 +25°C° 0 mm 0 m/s 683 mmHg 69%
    10:00 +27°C° 0 mm 0 m/s 684 mmHg 58%
    11:00 +27°C° 0.3 mm 0 m/s 683 mmHg 58%
    12:00 +28°C° 0.3 mm 0 m/s 683 mmHg 58%
    13:00 +30°C° 0.3 mm 1 m/s 682 mmHg 57%
    14:00 +27°C° 1.5 mm 0 m/s 682 mmHg 64%
    15:00 +27°C° 1.5 mm 0 m/s 681 mmHg 70%
    16:00 +26°C° 1.5 mm 0 m/s 680 mmHg 77%
    17:00 +24°C° 0.8 mm 0 m/s 680 mmHg 82%
    18:00 +22°C° 0.8 mm 0 m/s 680 mmHg 87%
    19:00 +21°C° 0.8 mm 0 m/s 680 mmHg 92%
    20:00 +20°C° 0.5 mm 0 m/s 681 mmHg 93%
    21:00 +20°C° 0.5 mm 0 m/s 681 mmHg 93%
    22:00 +20°C° 0.5 mm 0 m/s 682 mmHg 94%
    23:00 +20°C° 0.1 mm 0 m/s 682 mmHg 94%
    Voir plus